Back to catalog

SITRO-AIS-46

AliveNavigationSSO
NORAD 61774·PAYLOAD·🇷🇺 Russia
This satellite name has not been confirmed by official sources yet.

Launched Nov 4, 2024 from Vostochny Cosmodrome

Loading…

Next Passes (next 24 hours)

TLE

FreshSource: Space-Track

Epoch: Sep 14, 2026, 22:16 UTC

1 61774U 24199AR  26257.92811997  .00106776  00000-0  81920-3 0  9998
2 61774  97.2676 137.4736 0002173 343.2207  16.8985 15.71753866148514

Track SITRO-AIS-46 in real time with AllMySat

Download on the App Store